ProjectID,Date,Electric Generation,Electric Utility Import,Facility Electric Load
,YYYY-MM-DD,kW,kW,kW
467,2003-07-01,0.0,,0.0
467,2003-07-02,0.0,,0.0
467,2003-07-03,0.0,,0.0
467,2003-07-04,0.0,,0.0
467,2003-07-05,0.0,,0.0
467,2003-07-06,0.0,,0.0
467,2003-07-07,0.0,,0.0
467,2003-07-08,0.0,,0.0
467,2003-07-09,0.0,,0.0
467,2003-07-10,0.0,,0.0
467,2003-07-11,0.0,,0.0
467,2003-07-12,0.0,,0.0
467,2003-07-13,0.0,,0.0
467,2003-07-14,0.0,,0.0
467,2003-07-15,0.0,,0.0
467,2003-07-16,0.0,,0.0
467,2003-07-17,0.0,,0.0
467,2003-07-18,0.0,,0.0
467,2003-07-19,0.0,,0.0
467,2003-07-20,0.0,,0.0
467,2003-07-21,0.0,,0.0
467,2003-07-22,0.0,,0.0
467,2003-07-23,0.8333333333333334,,0.8333333333333334
467,2003-07-24,0.0,,0.0
467,2003-07-25,0.0,,0.0
467,2003-07-26,0.0,,0.0
467,2003-07-27,0.0,,0.0
467,2003-07-28,0.0,,0.0
467,2003-07-29,0.0,,0.0
467,2003-07-30,0.0,,0.0
467,2003-07-31,0.0,,0.0
467,2003-08-01,0.0,,0.0
467,2003-08-02,44.58345833333333,,44.58345833333333
467,2003-08-03,70.00033333333333,,70.00033333333333
467,2003-08-04,61.25004166666667,,61.25004166666667
467,2003-08-05,53.333124999999995,,53.333124999999995
467,2003-08-06,47.499833333333335,,47.499833333333335
467,2003-08-07,46.24991666666667,,46.24991666666667
467,2003-08-08,45.0,,45.0
467,2003-08-09,43.74975,,43.74975
467,2003-08-10,41.666666666666664,,41.666666666666664
467,2003-08-11,44.16683333333333,,44.16683333333333
467,2003-08-12,42.083083333333335,,42.083083333333335
467,2003-08-13,40.00033333333334,,40.00033333333334
467,2003-08-14,3.749833333333333,,3.749833333333333
467,2003-08-15,0.0,,0.0
467,2003-08-16,0.0,,0.0
467,2003-08-17,0.0,,0.0
467,2003-08-18,0.0,,0.0
467,2003-08-19,0.0,,0.0
467,2003-08-20,0.0,,0.0
467,2003-08-21,0.0,,0.0
467,2003-08-22,0.0,,0.0
467,2003-08-23,0.0,,0.0
467,2003-08-24,0.0,,0.0
467,2003-08-25,0.0,,0.0
467,2003-08-26,0.0,,0.0
467,2003-08-27,0.0,,0.0
467,2003-08-28,0.0,,0.0
467,2003-08-29,0.0,,0.0
467,2003-08-30,0.0,,0.0
467,2003-08-31,15.0,,15.0
467,2003-09-01,63.33325,,63.33325
467,2003-09-02,75.00033333333333,,75.00033333333333
467,2003-09-03,73.333625,,73.333625
467,2003-09-04,76.24991666666666,,76.24991666666666
467,2003-09-05,74.58354166666668,,74.58354166666668
467,2003-09-06,75.41708333333334,,75.41708333333334
467,2003-09-07,73.75008333333334,,73.75008333333334
467,2003-09-08,73.33366666666667,,73.33366666666667
467,2003-09-09,74.99995833333334,,74.99995833333334
467,2003-09-10,74.58354166666668,,74.58354166666668
467,2003-09-11,60.833416666666665,,60.833416666666665
467,2003-09-12,59.583416666666665,,59.583416666666665
467,2003-09-13,70.83375,,70.83375
467,2003-09-14,51.66704166666667,,51.66704166666667
467,2003-09-15,75.8335,,75.8335
467,2003-09-16,75.0,,75.0
467,2003-09-17,73.33366666666667,,73.33366666666667
467,2003-09-18,75.00033333333333,,75.00033333333333
467,2003-09-19,71.25020833333333,,71.25020833333333
467,2003-09-20,78.33333333333333,,78.33333333333333
467,2003-09-21,71.667,,71.667
467,2003-09-22,63.75004166666667,,63.75004166666667
467,2003-09-23,60.000166666666665,,60.000166666666665
467,2003-09-24,76.25025000000001,,76.25025000000001
467,2003-09-25,73.75004166666666,,73.75004166666666
467,2003-09-26,72.91691666666667,,72.91691666666667
467,2003-09-27,31.250125,,31.250125
467,2003-09-28,23.75,,23.75
467,2003-09-29,57.91679166666666,,57.91679166666666
467,2003-09-30,57.08358333333334,,57.08358333333334
467,2003-10-01,54.16654166666667,,54.16654166666667
467,2003-10-02,71.66691666666667,,71.66691666666667
467,2003-10-03,0.0,,0.0
467,2003-10-04,0.0,,0.0
467,2003-10-05,36.24979166666667,,36.24979166666667
467,2003-10-06,41.666666666666664,,41.666666666666664
467,2003-10-07,62.5,,62.5
467,2003-10-08,55.83325,,55.83325
467,2003-10-09,72.50025000000001,,72.50025000000001
467,2003-10-10,70.833125,,70.833125
467,2003-10-11,71.666625,,71.666625
467,2003-10-12,40.41670833333333,,40.41670833333333
467,2003-10-13,17.916333333333334,,17.916333333333334
467,2003-10-14,22.916749999999997,,22.916749999999997
467,2003-10-15,0.0,,0.0
467,2003-10-16,27.500208333333333,,27.500208333333333
467,2003-10-17,73.7495,,73.7495
467,2003-10-18,75.000125,,75.000125
467,2003-10-19,75.83366666666667,,75.83366666666667
467,2003-10-20,75.000125,,75.000125
467,2003-10-21,74.9995,,74.9995
467,2003-10-22,75.000125,,75.000125
467,2003-10-23,75.000125,,75.000125
467,2003-10-24,75.000125,,75.000125
467,2003-10-25,75.000125,,75.000125
467,2003-10-26,74.9995,,74.9995
467,2003-10-27,75.000125,,75.000125
467,2003-10-28,75.000125,,75.000125
467,2003-10-29,75.000125,,75.000125
467,2003-10-30,75.000125,,75.000125
467,2003-10-31,74.9995,,74.9995
467,2003-11-01,75.000125,,75.000125
467,2003-11-02,75.000125,,75.000125
467,2003-11-03,72.500125,,72.500125
467,2003-11-04,74.9995,,74.9995
467,2003-11-05,75.000125,,75.000125
467,2003-11-06,75.000125,,75.000125
467,2003-11-07,75.000125,,75.000125
467,2003-11-08,75.000125,,75.000125
467,2003-11-09,74.9995,,74.9995
467,2003-11-10,75.000125,,75.000125
467,2003-11-11,75.000125,,75.000125
467,2003-11-12,73.750125,,73.750125
467,2003-11-13,68.333375,,68.333375
467,2003-11-14,62.91670833333333,,62.91670833333333
467,2003-11-15,75.000125,,75.000125
467,2003-11-16,75.000125,,75.000125
467,2003-11-17,75.000125,,75.000125
467,2003-11-18,74.9995,,74.9995
467,2003-11-19,75.000125,,75.000125
467,2003-11-20,75.000125,,75.000125
467,2003-11-21,75.000125,,75.000125
467,2003-11-22,75.000125,,75.000125
467,2003-11-23,49.166374999999995,,49.166374999999995
467,2003-11-24,6.24975,,6.24975
467,2003-11-25,75.000125,,75.000125
467,2003-11-26,75.000125,,75.000125
467,2003-11-27,75.000125,,75.000125
467,2003-11-28,73.33304166666666,,73.33304166666666
467,2003-11-29,73.33366666666667,,73.33366666666667
467,2003-11-30,74.16658333333334,,74.16658333333334
467,2003-12-01,73.33304166666666,,73.33304166666666
467,2003-12-02,74.58304166666666,,74.58304166666666
467,2003-12-03,72.91658333333334,,72.91658333333334
467,2003-12-04,75.000125,,75.000125
467,2003-12-05,60.00029166666667,,60.00029166666667
467,2003-12-06,75.000125,,75.000125
467,2003-12-07,75.000125,,75.000125
467,2003-12-08,75.000125,,75.000125
467,2003-12-09,74.9995,,74.9995
467,2003-12-10,31.667083333333334,,31.667083333333334
467,2003-12-11,66.249875,,66.249875
467,2003-12-12,0.0,,0.0
467,2003-12-13,71.66670833333333,,71.66670833333333
467,2003-12-14,75.000125,,75.000125
467,2003-12-15,70.83320833333333,,70.83320833333333
467,2003-12-16,61.66716666666667,,61.66716666666667
467,2003-12-17,74.9995,,74.9995
467,2003-12-18,62.08358333333334,,62.08358333333334
467,2003-12-19,0.0,,0.0
467,2003-12-20,0.0,,0.0
467,2003-12-21,0.0,,0.0
467,2003-12-22,51.666291666666666,,51.666291666666666
467,2003-12-23,75.00075,,75.00075
467,2003-12-24,74.9995,,74.9995
467,2003-12-25,75.00075,,75.00075
467,2003-12-26,74.9995,,74.9995
467,2003-12-27,74.9995,,74.9995
467,2003-12-28,75.00075,,75.00075
467,2003-12-29,74.9995,,74.9995
467,2003-12-30,75.00075,,75.00075
467,2003-12-31,74.9995,,74.9995
467,2004-01-01,74.9995,,74.9995
467,2004-01-02,75.00075,,75.00075
467,2004-01-03,74.9995,,74.9995
467,2004-01-04,75.00075,,75.00075
467,2004-01-05,74.9995,,74.9995
467,2004-01-06,74.9995,,74.9995
467,2004-01-07,75.000875,,75.000875
467,2004-01-08,74.58366666666667,,74.58366666666667
467,2004-01-09,44.99945833333334,,44.99945833333334
467,2004-01-10,0.0,,0.0
467,2004-01-11,9.583791666666666,,9.583791666666666
467,2004-01-12,74.9995,,74.9995
467,2004-01-13,73.75075,,73.75075
467,2004-01-14,7.499708333333333,,7.499708333333333
467,2004-01-15,0.0,,0.0
467,2004-01-16,68.74983333333334,,68.74983333333334
467,2004-01-17,75.00075,,75.00075
467,2004-01-18,74.9995,,74.9995
467,2004-01-19,74.9995,,74.9995
467,2004-01-20,75.00075,,75.00075
467,2004-01-21,74.9995,,74.9995
467,2004-01-22,75.00075,,75.00075
467,2004-01-23,74.9995,,74.9995
467,2004-01-24,31.25,,31.25
467,2004-01-25,28.33429166666667,,28.33429166666667
467,2004-01-26,74.9995,,74.9995
467,2004-01-27,74.9995,,74.9995
467,2004-01-28,75.00075,,75.00075
467,2004-01-29,74.9995,,74.9995
467,2004-01-30,75.00075,,75.00075
467,2004-01-31,74.9995,,74.9995
467,2004-02-01,74.9995,,74.9995
467,2004-02-02,75.00075,,75.00075
467,2004-02-03,74.9995,,74.9995
467,2004-02-04,75.00075,,75.00075
467,2004-02-05,74.9995,,74.9995
467,2004-02-06,74.9995,,74.9995
467,2004-02-07,75.00075,,75.00075
467,2004-02-08,74.9995,,74.9995
467,2004-02-09,75.00075,,75.00075
467,2004-02-10,74.9995,,74.9995
467,2004-02-11,73.7495,,73.7495
467,2004-02-12,75.00075,,75.00075
467,2004-02-13,74.9995,,74.9995
467,2004-02-14,75.00075,,75.00075
467,2004-02-15,74.9995,,74.9995
467,2004-02-16,74.9995,,74.9995
467,2004-02-17,75.00075,,75.00075
467,2004-02-18,74.9995,,74.9995
467,2004-02-19,75.00075,,75.00075
467,2004-02-20,74.58241666666667,,74.58241666666667
467,2004-02-21,75.41658333333334,,75.41658333333334
467,2004-02-22,75.00075,,75.00075
467,2004-02-23,74.9995,,74.9995
467,2004-02-24,75.00075,,75.00075
467,2004-02-25,74.58241666666667,,74.58241666666667
467,2004-02-26,75.00075,,75.00075
467,2004-02-27,75.41658333333334,,75.41658333333334
467,2004-02-28,74.58241666666667,,74.58241666666667
467,2004-02-29,0.0,,0.0
467,2004-03-01,72.08254166666667,,72.08254166666667
467,2004-03-02,75.00075,,75.00075
467,2004-03-03,75.41658333333334,,75.41658333333334
467,2004-03-04,73.7495,,73.7495
467,2004-03-05,74.58366666666667,,74.58366666666667
467,2004-03-06,75.83366666666667,,75.83366666666667
467,2004-03-07,74.9995,,74.9995
467,2004-03-08,75.41658333333334,,75.41658333333334
467,2004-03-09,74.9995,,74.9995
467,2004-03-10,75.00075,,75.00075
467,2004-03-11,74.58366666666667,,74.58366666666667
467,2004-03-12,72.08258333333333,,72.08258333333333
467,2004-03-13,58.750166666666665,,58.750166666666665
467,2004-03-14,75.41658333333334,,75.41658333333334
467,2004-03-15,75.00075,,75.00075
467,2004-03-16,74.9995,,74.9995
467,2004-03-17,74.58366666666667,,74.58366666666667
467,2004-03-18,75.41658333333334,,75.41658333333334
467,2004-03-19,74.9995,,74.9995
467,2004-03-20,75.00075,,75.00075
467,2004-03-21,72.91658333333334,,72.91658333333334
467,2004-03-22,75.83241666666667,,75.83241666666667
467,2004-03-23,9.58375,,9.58375
467,2004-03-24,47.91654166666667,,47.91654166666667
467,2004-03-25,75.00075,,75.00075
467,2004-03-26,64.58308333333333,,64.58308333333333
467,2004-03-27,74.9995,,74.9995
467,2004-03-28,75.00075,,75.00075
467,2004-03-29,74.9995,,74.9995
467,2004-03-30,75.00075,,75.00075
467,2004-03-31,74.9995,,74.9995
467,2004-04-01,74.16658333333334,,74.16658333333334
467,2004-04-02,75.83366666666667,,75.83366666666667
467,2004-04-03,74.9995,,74.9995
467,2004-04-04,75.00075,,75.00075
467,2004-04-05,54.16616666666667,,54.16616666666667
467,2004-04-06,53.33329166666667,,53.33329166666667
467,2004-04-07,75.00075,,75.00075
467,2004-04-08,74.9995,,74.9995
467,2004-04-09,75.00075,,75.00075
467,2004-04-10,74.9995,,74.9995
467,2004-04-11,74.9995,,74.9995
467,2004-04-12,75.00075,,75.00075
467,2004-04-13,74.9995,,74.9995
467,2004-04-14,75.00075,,75.00075
467,2004-04-15,74.9995,,74.9995
467,2004-04-16,74.9995,,74.9995
467,2004-04-17,75.00075,,75.00075
467,2004-04-18,74.9995,,74.9995
467,2004-04-19,74.58366666666667,,74.58366666666667
467,2004-04-20,74.9995,,74.9995
467,2004-04-21,75.00075,,75.00075
467,2004-04-22,71.24958333333333,,71.24958333333333
467,2004-04-23,34.999874999999996,,34.999874999999996
467,2004-04-24,73.75075,,73.75075
467,2004-04-25,74.58366666666667,,74.58366666666667
467,2004-04-26,75.41658333333334,,75.41658333333334
467,2004-04-27,74.9995,,74.9995
467,2004-04-28,74.58366666666667,,74.58366666666667
467,2004-04-29,73.33241666666667,,73.33241666666667
467,2004-04-30,75.00075,,75.00075
467,2004-05-01,74.9995,,74.9995
467,2004-05-02,74.58366666666667,,74.58366666666667
467,2004-05-03,74.9995,,74.9995
467,2004-05-04,75.00075,,75.00075
467,2004-05-05,74.9995,,74.9995
467,2004-05-06,75.00075,,75.00075
467,2004-05-07,74.9995,,74.9995
467,2004-05-08,74.9995,,74.9995
467,2004-05-09,75.00075,,75.00075
467,2004-05-10,74.9995,,74.9995
467,2004-05-11,73.7495,,73.7495
467,2004-05-12,72.08366666666667,,72.08366666666667
467,2004-05-13,71.66658333333334,,71.66658333333334
467,2004-05-14,18.33341666666667,,18.33341666666667
467,2004-05-15,0.0,,0.0
467,2004-05-16,39.999625,,39.999625
467,2004-05-17,0.4170833333333333,,0.4170833333333333
467,2004-05-18,46.66645833333333,,46.66645833333333
467,2004-05-19,72.08379166666667,,72.08379166666667
467,2004-05-20,0.0,,0.0
467,2004-05-21,0.0,,0.0
467,2004-05-22,0.0,,0.0
467,2004-05-23,0.0,,0.0
467,2004-05-24,0.0,,0.0
467,2004-05-25,0.0,,0.0
467,2004-05-26,0.0,,0.0
467,2004-05-27,0.0,,0.0
467,2004-05-28,0.0,,0.0
467,2004-05-29,0.0,,0.0
467,2004-05-30,0.0,,0.0
467,2004-05-31,0.0,,0.0
467,2004-06-01,0.0,,0.0
467,2004-06-02,0.0,,0.0
467,2004-06-03,0.0,,0.0
467,2004-06-04,0.0,,0.0
467,2004-06-05,0.0,,0.0
467,2004-06-06,0.0,,0.0
467,2004-06-07,0.0,,0.0
467,2004-06-08,0.0,,0.0
467,2004-06-09,0.0,,0.0
467,2004-06-10,0.0,,0.0
467,2004-06-11,0.0,,0.0
467,2004-06-12,0.0,,0.0
467,2004-06-13,0.0,,0.0
467,2004-06-14,0.0,,0.0
467,2004-06-15,0.0,,0.0
467,2004-06-16,0.0,,0.0
467,2004-06-17,74.99929166666666,,74.99929166666666
467,2004-06-18,58.33420833333333,,58.33420833333333
467,2004-06-19,47.083416666666665,,47.083416666666665
467,2004-06-20,74.99929166666666,,74.99929166666666
467,2004-06-21,74.99929166666666,,74.99929166666666
467,2004-06-22,74.58475,,74.58475
467,2004-06-23,74.99929166666666,,74.99929166666666
467,2004-06-24,74.99929166666666,,74.99929166666666
467,2004-06-25,74.99929166666666,,74.99929166666666
467,2004-06-26,74.99929166666666,,74.99929166666666
467,2004-06-27,75.00183333333334,,75.00183333333334
467,2004-06-28,74.99929166666666,,74.99929166666666
467,2004-06-29,74.58220833333333,,74.58220833333333
467,2004-06-30,74.16766666666666,,74.16766666666666
467,2004-07-01,73.74804166666667,,73.74804166666667
467,2004-07-02,74.16766666666666,,74.16766666666666
467,2004-07-03,73.75058333333332,,73.75058333333332
467,2004-07-04,74.165125,,74.165125
467,2004-07-05,73.75058333333332,,73.75058333333332
467,2004-07-06,74.165125,,74.165125
467,2004-07-07,73.75058333333332,,73.75058333333332
467,2004-07-08,74.165125,,74.165125
467,2004-07-09,73.75058333333332,,73.75058333333332
467,2004-07-10,74.16766666666666,,74.16766666666666
467,2004-07-11,73.74804166666667,,73.74804166666667
467,2004-07-12,74.16766666666666,,74.16766666666666
467,2004-07-13,73.75058333333332,,73.75058333333332
467,2004-07-14,74.165125,,74.165125
467,2004-07-15,73.75058333333332,,73.75058333333332
467,2004-07-16,74.165125,,74.165125
467,2004-07-17,73.75058333333332,,73.75058333333332
467,2004-07-18,74.165125,,74.165125
467,2004-07-19,73.75058333333332,,73.75058333333332
467,2004-07-20,73.75058333333332,,73.75058333333332
467,2004-07-21,74.165125,,74.165125
467,2004-07-22,73.75058333333332,,73.75058333333332
467,2004-07-23,74.16766666666666,,74.16766666666666
467,2004-07-24,73.74804166666667,,73.74804166666667
467,2004-07-25,74.16766666666666,,74.16766666666666
467,2004-07-26,73.74804166666667,,73.74804166666667
467,2004-07-27,74.16766666666666,,74.16766666666666
467,2004-07-28,74.165125,,74.165125
467,2004-07-29,75.00183333333334,,75.00183333333334
467,2004-07-30,74.99929166666666,,74.99929166666666
467,2004-07-31,74.99929166666666,,74.99929166666666
467,2004-08-01,74.99929166666666,,74.99929166666666
467,2004-08-02,74.99929166666666,,74.99929166666666
467,2004-08-03,73.33354166666668,,73.33354166666668
467,2004-08-04,24.167291666666667,,24.167291666666667
467,2004-08-05,15.416541666666667,,15.416541666666667
467,2004-08-06,65.41445833333333,,65.41445833333333
467,2004-08-07,70.833625,,70.833625
467,2004-08-08,74.99929166666666,,74.99929166666666
467,2004-08-09,75.00183333333334,,75.00183333333334
467,2004-08-10,74.99929166666666,,74.99929166666666
467,2004-08-11,74.99929166666666,,74.99929166666666
467,2004-08-12,74.99929166666666,,74.99929166666666
467,2004-08-13,74.99929166666666,,74.99929166666666
467,2004-08-14,75.00183333333334,,75.00183333333334
467,2004-08-15,74.99929166666666,,74.99929166666666
467,2004-08-16,74.99929166666666,,74.99929166666666
467,2004-08-17,74.99929166666666,,74.99929166666666
467,2004-08-18,74.99929166666666,,74.99929166666666
467,2004-08-19,73.3335,,73.3335
467,2004-08-20,75.00183333333334,,75.00183333333334
467,2004-08-21,74.99929166666666,,74.99929166666666
467,2004-08-22,74.58220833333333,,74.58220833333333
467,2004-08-23,75.416375,,75.416375
467,2004-08-24,65.41679166666667,,65.41679166666667
467,2004-08-25,0.0,,0.0
467,2004-08-26,18.747916666666665,,18.747916666666665
467,2004-08-27,75.00183333333334,,75.00183333333334
467,2004-08-28,74.58220833333333,,74.58220833333333
467,2004-08-29,75.416375,,75.416375
467,2004-08-30,74.99929166666666,,74.99929166666666
467,2004-08-31,74.99929166666666,,74.99929166666666
467,2004-09-01,75.00183333333334,,75.00183333333334
467,2004-09-02,74.99929166666666,,74.99929166666666
467,2004-09-03,74.99929166666666,,74.99929166666666
467,2004-09-04,74.99929166666666,,74.99929166666666
467,2004-09-05,73.75058333333332,,73.75058333333332
467,2004-09-06,73.3335,,73.3335
467,2004-09-07,72.08225,,72.08225
467,2004-09-08,72.08225,,72.08225
467,2004-09-09,71.250625,,71.250625
467,2004-09-10,67.91670833333333,,67.91670833333333
467,2004-09-11,0.0,,0.0
467,2004-09-12,0.0,,0.0
467,2004-09-13,0.0,,0.0
467,2004-09-14,0.0,,0.0
467,2004-09-15,0.0,,0.0
467,2004-09-16,0.0,,0.0
467,2004-09-17,0.0,,0.0
467,2004-09-18,0.0,,0.0
467,2004-09-19,0.0,,0.0
467,2004-09-20,0.0,,0.0
467,2004-09-21,0.0,,0.0
467,2004-09-22,0.0,,0.0
467,2004-09-23,0.0,,0.0
467,2004-09-24,0.0,,0.0
467,2004-09-25,0.0,,0.0
467,2004-09-26,0.0,,0.0
467,2004-09-27,0.0,,0.0
467,2004-09-28,0.0,,0.0
467,2004-09-29,0.0,,0.0
467,2004-09-30,12.499583333333334,,12.499583333333334
467,2004-10-01,60.00054166666666,,60.00054166666666
467,2004-10-02,59.166374999999995,,59.166374999999995
467,2004-10-03,54.58354166666667,,54.58354166666667
467,2004-10-04,60.00054166666666,,60.00054166666666
467,2004-10-05,60.00054166666666,,60.00054166666666
467,2004-10-06,60.00054166666666,,60.00054166666666
467,2004-10-07,60.00054166666666,,60.00054166666666
467,2004-10-08,60.00054166666666,,60.00054166666666
467,2004-10-09,60.00054166666666,,60.00054166666666
467,2004-10-10,60.00054166666666,,60.00054166666666
467,2004-10-11,60.00054166666666,,60.00054166666666
467,2004-10-12,60.00054166666666,,60.00054166666666
467,2004-10-13,60.00054166666666,,60.00054166666666
467,2004-10-14,60.00054166666666,,60.00054166666666
467,2004-10-15,27.91616666666667,,27.91616666666667
467,2004-10-16,50.000875,,50.000875
467,2004-10-17,60.00054166666666,,60.00054166666666
467,2004-10-18,60.00054166666666,,60.00054166666666
467,2004-10-19,60.00054166666666,,60.00054166666666
467,2004-10-20,59.998,,59.998
467,2004-10-21,60.00054166666666,,60.00054166666666
467,2004-10-22,60.00054166666666,,60.00054166666666
467,2004-10-23,60.00054166666666,,60.00054166666666
467,2004-10-24,60.00054166666666,,60.00054166666666
467,2004-10-25,60.00054166666666,,60.00054166666666
467,2004-10-26,60.00054166666666,,60.00054166666666
467,2004-10-27,57.083499999999994,,57.083499999999994
467,2004-10-28,59.16891666666667,,59.16891666666667
467,2004-10-29,60.41491666666667,,60.41491666666667
467,2004-10-30,60.000499999999995,,60.000499999999995
467,2004-10-31,60.00054166666666,,60.00054166666666
467,2004-11-01,56.251875000000005,,56.251875000000005
467,2004-11-02,62.91729166666667,,62.91729166666667
467,2004-11-03,60.83208333333334,,60.83208333333334
467,2004-11-04,60.00054166666666,,60.00054166666666
467,2004-11-05,60.00054166666666,,60.00054166666666
467,2004-11-06,60.00054166666666,,60.00054166666666
467,2004-11-07,60.00054166666666,,60.00054166666666
467,2004-11-08,60.00054166666666,,60.00054166666666
467,2004-11-09,60.00054166666666,,60.00054166666666
467,2004-11-10,60.00054166666666,,60.00054166666666
467,2004-11-11,60.00054166666666,,60.00054166666666
467,2004-11-12,60.000458333333334,,60.000458333333334
467,2004-11-13,60.00054166666666,,60.00054166666666
467,2004-11-14,60.00054166666666,,60.00054166666666
467,2004-11-15,60.00054166666666,,60.00054166666666
467,2004-11-16,60.00054166666666,,60.00054166666666
467,2004-11-17,60.00054166666666,,60.00054166666666
467,2004-11-18,60.00054166666666,,60.00054166666666
467,2004-11-19,60.00054166666666,,60.00054166666666
467,2004-11-20,60.00054166666666,,60.00054166666666
467,2004-11-21,59.998,,59.998
467,2004-11-22,66.66829166666666,,66.66829166666666
467,2004-11-23,74.99929166666666,,74.99929166666666
467,2004-11-24,74.99929166666666,,74.99929166666666
467,2004-11-25,74.99929166666666,,74.99929166666666
467,2004-11-26,75.00183333333334,,75.00183333333334
467,2004-11-27,74.58220833333333,,74.58220833333333
467,2004-11-28,74.16766666666666,,74.16766666666666
467,2004-11-29,74.99929166666666,,74.99929166666666
467,2004-11-30,74.58220833333333,,74.58220833333333
467,2004-12-01,44.58354166666667,,44.58354166666667
467,2004-12-02,0.0,,0.0
467,2004-12-03,0.0,,0.0
467,2004-12-04,0.0,,0.0
467,2004-12-05,0.0,,0.0
467,2004-12-06,0.0,,0.0
467,2004-12-07,0.0,,0.0
467,2004-12-08,0.0,,0.0
467,2004-12-09,20.416166666666665,,20.416166666666665
467,2004-12-10,69.999375,,69.999375
467,2004-12-11,70.00191666666667,,70.00191666666667
467,2004-12-12,69.999375,,69.999375
467,2004-12-13,69.999375,,69.999375
467,2004-12-14,69.999375,,69.999375
467,2004-12-15,69.999375,,69.999375
467,2004-12-16,68.33375,,68.33375
467,2004-12-17,69.999375,,69.999375
467,2004-12-18,69.999375,,69.999375
467,2004-12-19,69.999375,,69.999375
467,2004-12-20,69.999375,,69.999375
467,2004-12-21,69.999375,,69.999375
467,2004-12-22,70.00191666666667,,70.00191666666667
467,2004-12-23,69.999375,,69.999375
467,2004-12-24,69.999375,,69.999375
467,2004-12-25,69.999375,,69.999375
467,2004-12-26,69.999375,,69.999375
467,2004-12-27,69.999375,,69.999375
467,2004-12-28,71.250625,,71.250625
467,2004-12-29,74.99929166666666,,74.99929166666666
467,2004-12-30,74.99929166666666,,74.99929166666666
467,2004-12-31,74.99929166666666,,74.99929166666666
467,2005-01-01,75.00183333333334,,75.00183333333334
467,2005-01-02,74.99929166666666,,74.99929166666666
467,2005-01-03,74.99929166666666,,74.99929166666666
467,2005-01-04,74.99929166666666,,74.99929166666666
467,2005-01-05,74.99929166666666,,74.99929166666666
467,2005-01-06,75.00183333333334,,75.00183333333334
467,2005-01-07,74.99929166666666,,74.99929166666666
467,2005-01-08,74.99929166666666,,74.99929166666666
467,2005-01-09,74.99929166666666,,74.99929166666666
467,2005-01-10,74.99929166666666,,74.99929166666666
467,2005-01-11,75.00183333333334,,75.00183333333334
467,2005-01-12,74.99929166666666,,74.99929166666666
467,2005-01-13,73.3335,,73.3335
467,2005-01-14,74.99929166666666,,74.99929166666666
467,2005-01-15,74.58220833333333,,74.58220833333333
467,2005-01-16,75.416375,,75.416375
467,2005-01-17,74.99929166666666,,74.99929166666666
467,2005-01-18,73.33358333333334,,73.33358333333334
467,2005-01-19,67.499875,,67.499875
467,2005-01-20,75.00183333333334,,75.00183333333334
467,2005-01-21,74.99929166666666,,74.99929166666666
467,2005-01-22,74.58220833333333,,74.58220833333333
467,2005-01-23,75.416375,,75.416375
467,2005-01-24,74.99929166666666,,74.99929166666666
467,2005-01-25,75.00183333333334,,75.00183333333334
467,2005-01-26,74.99929166666666,,74.99929166666666
467,2005-01-27,74.58220833333333,,74.58220833333333
467,2005-01-28,0.0,,0.0
467,2005-01-29,0.0,,0.0
467,2005-01-30,0.0,,0.0
467,2005-01-31,0.0,,0.0
467,2005-02-01,0.0,,0.0